<?xml version="1.0" encoding="UTF-8" standalone="no" ?>
<gpx xmlns="http://www.topografix.com/GPX/1/1" xmlns:xsi="http://www.w3.org/2001/XMLSchema-instance" xsi:schemaLocation="http://www.topografix.com/GPX/1/1 http://www.topografix.com/GPX/1/1/gpx.xsd" version="1.1" creator="VisuGPX - https://www.visugpx.com">
  <metadata>
    <name>GTMC 2012 Jour 4</name>
    <desc><![CDATA[etape du 4em jour de la traversée du massif central]]></desc>
  </metadata>
  <trk>
    <name><![CDATA[track]]></name>
    <trkseg>
      <trkpt lat="44.65841" lon="3.073">
        <ele>1220</ele>
        <time>2012-01-06T09:42:48Z</time>
      </trkpt>
      <trkpt lat="44.65791" lon="3.0729">
        <ele>1215</ele>
        <time>2012-01-06T09:42:48Z</time>
      </trkpt>
      <trkpt lat="44.6575" lon="3.07148">
        <ele>1215</ele>
        <time>2012-01-06T09:42:48Z</time>
      </trkpt>
      <trkpt lat="44.65737" lon="3.07078">
        <ele>1214</ele>
        <time>2012-01-06T09:42:48Z</time>
      </trkpt>
      <trkpt lat="44.65776" lon="3.06887">
        <ele>1209</ele>
        <time>2012-01-06T09:42:48Z</time>
      </trkpt>
      <trkpt lat="44.65786" lon="3.06808">
        <ele>1208</ele>
        <time>2012-01-06T09:42:48Z</time>
      </trkpt>
      <trkpt lat="44.65903" lon="3.06693">
        <ele>1192</ele>
        <time>2012-01-06T09:42:48Z</time>
      </trkpt>
      <trkpt lat="44.65895" lon="3.06642">
        <ele>1193</ele>
        <time>2012-01-06T09:42:48Z</time>
      </trkpt>
      <trkpt lat="44.65906" lon="3.06564">
        <ele>1194</ele>
        <time>2012-01-06T09:42:48Z</time>
      </trkpt>
      <trkpt lat="44.6589" lon="3.06305">
        <ele>1202</ele>
        <time>2012-01-06T09:42:48Z</time>
      </trkpt>
      <trkpt lat="44.65815" lon="3.06084">
        <ele>1215</ele>
        <time>2012-01-06T09:42:48Z</time>
      </trkpt>
      <trkpt lat="44.65758" lon="3.05941">
        <ele>1218</ele>
        <time>2012-01-06T09:42:48Z</time>
      </trkpt>
      <trkpt lat="44.65743" lon="3.05831">
        <ele>1221</ele>
        <time>2012-01-06T09:42:48Z</time>
      </trkpt>
      <trkpt lat="44.65756" lon="3.05793">
        <ele>1221</ele>
        <time>2012-01-06T09:42:48Z</time>
      </trkpt>
      <trkpt lat="44.65854" lon="3.05624">
        <ele>1207</ele>
        <time>2012-01-06T09:42:48Z</time>
      </trkpt>
      <trkpt lat="44.65853" lon="3.05514">
        <ele>1203</ele>
        <time>2012-01-06T09:42:48Z</time>
      </trkpt>
      <trkpt lat="44.65939" lon="3.05326">
        <ele>1193</ele>
        <time>2012-01-06T09:42:48Z</time>
      </trkpt>
      <trkpt lat="44.65917" lon="3.05219">
        <ele>1190</ele>
        <time>2012-01-06T09:42:48Z</time>
      </trkpt>
      <trkpt lat="44.66162" lon="3.04929">
        <ele>1178</ele>
        <time>2012-01-06T09:42:48Z</time>
      </trkpt>
      <trkpt lat="44.66179" lon="3.04724">
        <ele>1175</ele>
        <time>2012-01-06T09:42:48Z</time>
      </trkpt>
      <trkpt lat="44.66211" lon="3.04668">
        <ele>1176</ele>
        <time>2012-01-06T09:42:48Z</time>
      </trkpt>
      <trkpt lat="44.66263" lon="3.04659">
        <ele>1182</ele>
        <time>2012-01-06T09:42:48Z</time>
      </trkpt>
      <trkpt lat="44.66261" lon="3.04328">
        <ele>1181</ele>
        <time>2012-01-06T09:42:48Z</time>
      </trkpt>
      <trkpt lat="44.65975" lon="3.03934">
        <ele>1195</ele>
        <time>2012-01-06T09:42:48Z</time>
      </trkpt>
      <trkpt lat="44.66023" lon="3.03837">
        <ele>1207</ele>
        <time>2012-01-06T09:42:48Z</time>
      </trkpt>
      <trkpt lat="44.65811" lon="3.03264">
        <ele>1219</ele>
        <time>2012-01-06T09:42:48Z</time>
      </trkpt>
      <trkpt lat="44.65804" lon="3.02949">
        <ele>1209</ele>
        <time>2012-01-06T09:42:48Z</time>
      </trkpt>
      <trkpt lat="44.65715" lon="3.02816">
        <ele>1209</ele>
        <time>2012-01-06T09:42:48Z</time>
      </trkpt>
      <trkpt lat="44.65695" lon="3.02667">
        <ele>1217</ele>
        <time>2012-01-06T09:42:48Z</time>
      </trkpt>
      <trkpt lat="44.65609" lon="3.02499">
        <ele>1229</ele>
        <time>2012-01-06T09:42:48Z</time>
      </trkpt>
      <trkpt lat="44.65605" lon="3.02402">
        <ele>1236</ele>
        <time>2012-01-06T09:42:48Z</time>
      </trkpt>
      <trkpt lat="44.65574" lon="3.02322">
        <ele>1242</ele>
        <time>2012-01-06T09:42:48Z</time>
      </trkpt>
      <trkpt lat="44.65562" lon="3.02102">
        <ele>1243</ele>
        <time>2012-01-06T09:42:48Z</time>
      </trkpt>
      <trkpt lat="44.65598" lon="3.02027">
        <ele>1237</ele>
        <time>2012-01-06T09:42:48Z</time>
      </trkpt>
      <trkpt lat="44.65539" lon="3.01846">
        <ele>1230</ele>
        <time>2012-01-06T09:42:48Z</time>
      </trkpt>
      <trkpt lat="44.65529" lon="3.01657">
        <ele>1220</ele>
        <time>2012-01-06T09:42:48Z</time>
      </trkpt>
      <trkpt lat="44.65444" lon="3.01473">
        <ele>1218</ele>
        <time>2012-01-06T09:42:48Z</time>
      </trkpt>
      <trkpt lat="44.65499" lon="3.01351">
        <ele>1215</ele>
        <time>2012-01-06T09:42:48Z</time>
      </trkpt>
      <trkpt lat="44.65377" lon="3.01054">
        <ele>1236</ele>
        <time>2012-01-06T09:42:48Z</time>
      </trkpt>
      <trkpt lat="44.6541" lon="3.00824">
        <ele>1262</ele>
        <time>2012-01-06T09:42:48Z</time>
      </trkpt>
      <trkpt lat="44.65391" lon="3.00676">
        <ele>1272</ele>
        <time>2012-01-06T09:42:48Z</time>
      </trkpt>
      <trkpt lat="44.65272" lon="3.00555">
        <ele>1273</ele>
        <time>2012-01-06T09:42:48Z</time>
      </trkpt>
      <trkpt lat="44.65118" lon="3.00452">
        <ele>1287</ele>
        <time>2012-01-06T09:42:48Z</time>
      </trkpt>
      <trkpt lat="44.65021" lon="3.00464">
        <ele>1293</ele>
        <time>2012-01-06T09:42:48Z</time>
      </trkpt>
      <trkpt lat="44.64952" lon="3.00403">
        <ele>1296</ele>
        <time>2012-01-06T09:42:48Z</time>
      </trkpt>
      <trkpt lat="44.64876" lon="3.00222">
        <ele>1294</ele>
        <time>2012-01-06T09:42:48Z</time>
      </trkpt>
      <trkpt lat="44.64848" lon="3.0003">
        <ele>1291</ele>
        <time>2012-01-06T09:42:48Z</time>
      </trkpt>
      <trkpt lat="44.64849" lon="2.99854">
        <ele>1294</ele>
        <time>2012-01-06T09:42:48Z</time>
      </trkpt>
      <trkpt lat="44.64816" lon="2.99756">
        <ele>1292</ele>
        <time>2012-01-06T09:42:48Z</time>
      </trkpt>
      <trkpt lat="44.64847" lon="2.99476">
        <ele>1302</ele>
        <time>2012-01-06T09:42:48Z</time>
      </trkpt>
      <trkpt lat="44.64764" lon="2.99062">
        <ele>1307</ele>
        <time>2012-01-06T09:42:48Z</time>
      </trkpt>
      <trkpt lat="44.64402" lon="2.98639">
        <ele>1320</ele>
        <time>2012-01-06T09:42:48Z</time>
      </trkpt>
      <trkpt lat="44.64118" lon="2.98809">
        <ele>1306</ele>
        <time>2012-01-06T09:42:48Z</time>
      </trkpt>
      <trkpt lat="44.63438" lon="2.99406">
        <ele>1368</ele>
        <time>2012-01-06T09:42:48Z</time>
      </trkpt>
      <trkpt lat="44.63325" lon="2.99385">
        <ele>1370</ele>
        <time>2012-01-06T09:42:48Z</time>
      </trkpt>
      <trkpt lat="44.63106" lon="2.99225">
        <ele>1364</ele>
        <time>2012-01-06T09:42:48Z</time>
      </trkpt>
      <trkpt lat="44.62952" lon="2.98965">
        <ele>1352</ele>
        <time>2012-01-06T09:42:48Z</time>
      </trkpt>
      <trkpt lat="44.62809" lon="2.98828">
        <ele>1345</ele>
        <time>2012-01-06T09:42:48Z</time>
      </trkpt>
      <trkpt lat="44.62609" lon="2.98769">
        <ele>1317</ele>
        <time>2012-01-06T09:42:48Z</time>
      </trkpt>
      <trkpt lat="44.6256" lon="2.98696">
        <ele>1316</ele>
        <time>2012-01-06T09:42:48Z</time>
      </trkpt>
      <trkpt lat="44.62434" lon="2.98723">
        <ele>1310</ele>
        <time>2012-01-06T09:42:48Z</time>
      </trkpt>
      <trkpt lat="44.62318" lon="2.98687">
        <ele>1311</ele>
        <time>2012-01-06T09:42:48Z</time>
      </trkpt>
      <trkpt lat="44.62214" lon="2.98695">
        <ele>1308</ele>
        <time>2012-01-06T09:42:48Z</time>
      </trkpt>
      <trkpt lat="44.62071" lon="2.98272">
        <ele>1321</ele>
        <time>2012-01-06T09:42:48Z</time>
      </trkpt>
      <trkpt lat="44.61972" lon="2.98148">
        <ele>1317</ele>
        <time>2012-01-06T09:42:48Z</time>
      </trkpt>
      <trkpt lat="44.61889" lon="2.97728">
        <ele>1306</ele>
        <time>2012-01-06T09:42:48Z</time>
      </trkpt>
      <trkpt lat="44.61785" lon="2.97469">
        <ele>1291</ele>
        <time>2012-01-06T09:42:48Z</time>
      </trkpt>
      <trkpt lat="44.61854" lon="2.97265">
        <ele>1274</ele>
        <time>2012-01-06T09:42:48Z</time>
      </trkpt>
      <trkpt lat="44.61777" lon="2.96871">
        <ele>1241</ele>
        <time>2012-01-06T09:42:48Z</time>
      </trkpt>
      <trkpt lat="44.61448" lon="2.96587">
        <ele>1212</ele>
        <time>2012-01-06T09:42:48Z</time>
      </trkpt>
      <trkpt lat="44.61303" lon="2.96441">
        <ele>1209</ele>
        <time>2012-01-06T09:42:48Z</time>
      </trkpt>
      <trkpt lat="44.61072" lon="2.96287">
        <ele>1199</ele>
        <time>2012-01-06T09:42:48Z</time>
      </trkpt>
      <trkpt lat="44.61012" lon="2.9627">
        <ele>1194</ele>
        <time>2012-01-06T09:42:48Z</time>
      </trkpt>
      <trkpt lat="44.60956" lon="2.96112">
        <ele>1194</ele>
        <time>2012-01-06T09:42:48Z</time>
      </trkpt>
      <trkpt lat="44.60892" lon="2.96055">
        <ele>1198</ele>
        <time>2012-01-06T09:42:48Z</time>
      </trkpt>
      <trkpt lat="44.60816" lon="2.95891">
        <ele>1201</ele>
        <time>2012-01-06T09:42:48Z</time>
      </trkpt>
      <trkpt lat="44.60655" lon="2.95779">
        <ele>1190</ele>
        <time>2012-01-06T09:42:48Z</time>
      </trkpt>
      <trkpt lat="44.6059" lon="2.95658">
        <ele>1174</ele>
        <time>2012-01-06T09:42:48Z</time>
      </trkpt>
      <trkpt lat="44.60557" lon="2.95633">
        <ele>1162</ele>
        <time>2012-01-06T09:42:48Z</time>
      </trkpt>
      <trkpt lat="44.60562" lon="2.95551">
        <ele>1162</ele>
        <time>2012-01-06T09:42:48Z</time>
      </trkpt>
      <trkpt lat="44.60474" lon="2.95509">
        <ele>1147</ele>
        <time>2012-01-06T09:42:48Z</time>
      </trkpt>
      <trkpt lat="44.60461" lon="2.95481">
        <ele>1146</ele>
        <time>2012-01-06T09:42:48Z</time>
      </trkpt>
      <trkpt lat="44.60445" lon="2.95487">
        <ele>1144</ele>
        <time>2012-01-06T09:42:48Z</time>
      </trkpt>
      <trkpt lat="44.60451" lon="2.95553">
        <ele>1140</ele>
        <time>2012-01-06T09:42:48Z</time>
      </trkpt>
      <trkpt lat="44.60402" lon="2.95571">
        <ele>1130</ele>
        <time>2012-01-06T09:42:48Z</time>
      </trkpt>
      <trkpt lat="44.60319" lon="2.95536">
        <ele>1112</ele>
        <time>2012-01-06T09:42:48Z</time>
      </trkpt>
      <trkpt lat="44.60306" lon="2.95454">
        <ele>1114</ele>
        <time>2012-01-06T09:42:48Z</time>
      </trkpt>
      <trkpt lat="44.60277" lon="2.95403">
        <ele>1116</ele>
        <time>2012-01-06T09:42:48Z</time>
      </trkpt>
      <trkpt lat="44.60293" lon="2.95353">
        <ele>1118</ele>
        <time>2012-01-06T09:42:48Z</time>
      </trkpt>
      <trkpt lat="44.60251" lon="2.95255">
        <ele>1110</ele>
        <time>2012-01-06T09:42:48Z</time>
      </trkpt>
      <trkpt lat="44.60235" lon="2.95236">
        <ele>1105</ele>
        <time>2012-01-06T09:42:48Z</time>
      </trkpt>
      <trkpt lat="44.60256" lon="2.95173">
        <ele>1097</ele>
        <time>2012-01-06T09:42:48Z</time>
      </trkpt>
      <trkpt lat="44.60238" lon="2.9516">
        <ele>1094</ele>
        <time>2012-01-06T09:42:48Z</time>
      </trkpt>
      <trkpt lat="44.60165" lon="2.95238">
        <ele>1090</ele>
        <time>2012-01-06T09:42:48Z</time>
      </trkpt>
      <trkpt lat="44.60168" lon="2.95191">
        <ele>1085</ele>
        <time>2012-01-06T09:42:48Z</time>
      </trkpt>
      <trkpt lat="44.60132" lon="2.95169">
        <ele>1076</ele>
        <time>2012-01-06T09:42:48Z</time>
      </trkpt>
      <trkpt lat="44.60099" lon="2.95033">
        <ele>1063</ele>
        <time>2012-01-06T09:42:48Z</time>
      </trkpt>
      <trkpt lat="44.59981" lon="2.94937">
        <ele>1048</ele>
        <time>2012-01-06T09:42:48Z</time>
      </trkpt>
      <trkpt lat="44.5999" lon="2.94887">
        <ele>1051</ele>
        <time>2012-01-06T09:42:48Z</time>
      </trkpt>
      <trkpt lat="44.60015" lon="2.94846">
        <ele>1047</ele>
        <time>2012-01-06T09:42:48Z</time>
      </trkpt>
      <trkpt lat="44.60164" lon="2.94782">
        <ele>1022</ele>
        <time>2012-01-06T09:42:48Z</time>
      </trkpt>
      <trkpt lat="44.59837" lon="2.94379">
        <ele>976</ele>
        <time>2012-01-06T09:42:48Z</time>
      </trkpt>
      <trkpt lat="44.59758" lon="2.94079">
        <ele>970</ele>
        <time>2012-01-06T09:42:48Z</time>
      </trkpt>
      <trkpt lat="44.59588" lon="2.93888">
        <ele>914</ele>
        <time>2012-01-06T09:42:48Z</time>
      </trkpt>
      <trkpt lat="44.59598" lon="2.93778">
        <ele>911</ele>
        <time>2012-01-06T09:42:48Z</time>
      </trkpt>
      <trkpt lat="44.59621" lon="2.93744">
        <ele>916</ele>
        <time>2012-01-06T09:42:48Z</time>
      </trkpt>
      <trkpt lat="44.59496" lon="2.93506">
        <ele>892</ele>
        <time>2012-01-06T09:42:48Z</time>
      </trkpt>
      <trkpt lat="44.59334" lon="2.93052">
        <ele>854</ele>
        <time>2012-01-06T09:42:48Z</time>
      </trkpt>
      <trkpt lat="44.59315" lon="2.92812">
        <ele>849</ele>
        <time>2012-01-06T09:42:48Z</time>
      </trkpt>
      <trkpt lat="44.59236" lon="2.92506">
        <ele>830</ele>
        <time>2012-01-06T09:42:48Z</time>
      </trkpt>
      <trkpt lat="44.5914" lon="2.92386">
        <ele>816</ele>
        <time>2012-01-06T09:42:48Z</time>
      </trkpt>
      <trkpt lat="44.59112" lon="2.92165">
        <ele>826</ele>
        <time>2012-01-06T09:42:48Z</time>
      </trkpt>
      <trkpt lat="44.59033" lon="2.92177">
        <ele>805</ele>
        <time>2012-01-06T09:42:48Z</time>
      </trkpt>
      <trkpt lat="44.59029" lon="2.92123">
        <ele>807</ele>
        <time>2012-01-06T09:42:48Z</time>
      </trkpt>
      <trkpt lat="44.58982" lon="2.92161">
        <ele>800</ele>
        <time>2012-01-06T09:42:48Z</time>
      </trkpt>
      <trkpt lat="44.58898" lon="2.92166">
        <ele>796</ele>
        <time>2012-01-06T09:42:48Z</time>
      </trkpt>
      <trkpt lat="44.58905" lon="2.92242">
        <ele>801</ele>
        <time>2012-01-06T09:42:48Z</time>
      </trkpt>
      <trkpt lat="44.58858" lon="2.92203">
        <ele>805</ele>
        <time>2012-01-06T09:42:48Z</time>
      </trkpt>
      <trkpt lat="44.5884" lon="2.92213">
        <ele>812</ele>
        <time>2012-01-06T09:42:48Z</time>
      </trkpt>
      <trkpt lat="44.58768" lon="2.92165">
        <ele>826</ele>
        <time>2012-01-06T09:42:48Z</time>
      </trkpt>
      <trkpt lat="44.58732" lon="2.92123">
        <ele>830</ele>
        <time>2012-01-06T09:42:48Z</time>
      </trkpt>
      <trkpt lat="44.58723" lon="2.9207">
        <ele>820</ele>
        <time>2012-01-06T09:42:48Z</time>
      </trkpt>
      <trkpt lat="44.58652" lon="2.92022">
        <ele>836</ele>
        <time>2012-01-06T09:42:48Z</time>
      </trkpt>
      <trkpt lat="44.58714" lon="2.92133">
        <ele>840</ele>
        <time>2012-01-06T09:42:48Z</time>
      </trkpt>
      <trkpt lat="44.58483" lon="2.91979">
        <ele>869</ele>
        <time>2012-01-06T09:42:48Z</time>
      </trkpt>
      <trkpt lat="44.58266" lon="2.91857">
        <ele>879</ele>
        <time>2012-01-06T09:42:48Z</time>
      </trkpt>
      <trkpt lat="44.58169" lon="2.91841">
        <ele>886</ele>
        <time>2012-01-06T09:42:48Z</time>
      </trkpt>
      <trkpt lat="44.58145" lon="2.91784">
        <ele>874</ele>
        <time>2012-01-06T09:42:48Z</time>
      </trkpt>
      <trkpt lat="44.58062" lon="2.91777">
        <ele>873</ele>
        <time>2012-01-06T09:42:48Z</time>
      </trkpt>
      <trkpt lat="44.57902" lon="2.91828">
        <ele>873</ele>
        <time>2012-01-06T09:42:48Z</time>
      </trkpt>
      <trkpt lat="44.57845" lon="2.91881">
        <ele>872</ele>
        <time>2012-01-06T09:42:48Z</time>
      </trkpt>
      <trkpt lat="44.57814" lon="2.91872">
        <ele>866</ele>
        <time>2012-01-06T09:42:48Z</time>
      </trkpt>
      <trkpt lat="44.57823" lon="2.91516">
        <ele>869</ele>
        <time>2012-01-06T09:42:48Z</time>
      </trkpt>
      <trkpt lat="44.57837" lon="2.91422">
        <ele>861</ele>
        <time>2012-01-06T09:42:48Z</time>
      </trkpt>
      <trkpt lat="44.57781" lon="2.91305">
        <ele>878</ele>
        <time>2012-01-06T09:42:48Z</time>
      </trkpt>
      <trkpt lat="44.5758" lon="2.91039">
        <ele>880</ele>
        <time>2012-01-06T09:42:48Z</time>
      </trkpt>
      <trkpt lat="44.57601" lon="2.90929">
        <ele>878</ele>
        <time>2012-01-06T09:42:48Z</time>
      </trkpt>
      <trkpt lat="44.57606" lon="2.90863">
        <ele>887</ele>
        <time>2012-01-06T09:42:48Z</time>
      </trkpt>
      <trkpt lat="44.57599" lon="2.90816">
        <ele>898</ele>
        <time>2012-01-06T09:42:48Z</time>
      </trkpt>
      <trkpt lat="44.57615" lon="2.90781">
        <ele>896</ele>
        <time>2012-01-06T09:42:48Z</time>
      </trkpt>
      <trkpt lat="44.57593" lon="2.90639">
        <ele>916</ele>
        <time>2012-01-06T09:42:48Z</time>
      </trkpt>
      <trkpt lat="44.57551" lon="2.90648">
        <ele>924</ele>
        <time>2012-01-06T09:42:48Z</time>
      </trkpt>
      <trkpt lat="44.57531" lon="2.90588">
        <ele>924</ele>
        <time>2012-01-06T09:42:48Z</time>
      </trkpt>
      <trkpt lat="44.57407" lon="2.90512">
        <ele>920</ele>
        <time>2012-01-06T09:42:48Z</time>
      </trkpt>
      <trkpt lat="44.57304" lon="2.90435">
        <ele>917</ele>
        <time>2012-01-06T09:42:48Z</time>
      </trkpt>
      <trkpt lat="44.57262" lon="2.90347">
        <ele>909</ele>
        <time>2012-01-06T09:42:48Z</time>
      </trkpt>
      <trkpt lat="44.57212" lon="2.90481">
        <ele>913</ele>
        <time>2012-01-06T09:42:48Z</time>
      </trkpt>
      <trkpt lat="44.57162" lon="2.90478">
        <ele>910</ele>
        <time>2012-01-06T09:42:48Z</time>
      </trkpt>
      <trkpt lat="44.57118" lon="2.90395">
        <ele>905</ele>
        <time>2012-01-06T09:42:48Z</time>
      </trkpt>
      <trkpt lat="44.57105" lon="2.90317">
        <ele>900</ele>
        <time>2012-01-06T09:42:48Z</time>
      </trkpt>
      <trkpt lat="44.57015" lon="2.90209">
        <ele>904</ele>
        <time>2012-01-06T09:42:48Z</time>
      </trkpt>
      <trkpt lat="44.57029" lon="2.90146">
        <ele>896</ele>
        <time>2012-01-06T09:42:48Z</time>
      </trkpt>
      <trkpt lat="44.57" lon="2.90105">
        <ele>899</ele>
        <time>2012-01-06T09:42:48Z</time>
      </trkpt>
      <trkpt lat="44.56998" lon="2.90042">
        <ele>896</ele>
        <time>2012-01-06T09:42:48Z</time>
      </trkpt>
      <trkpt lat="44.56881" lon="2.90041">
        <ele>908</ele>
        <time>2012-01-06T09:42:48Z</time>
      </trkpt>
      <trkpt lat="44.56437" lon="2.89363">
        <ele>888</ele>
        <time>2012-01-06T09:42:48Z</time>
      </trkpt>
      <trkpt lat="44.56229" lon="2.88836">
        <ele>867</ele>
        <time>2012-01-06T09:42:48Z</time>
      </trkpt>
      <trkpt lat="44.5596" lon="2.88648">
        <ele>858</ele>
        <time>2012-01-06T09:42:48Z</time>
      </trkpt>
      <trkpt lat="44.55945" lon="2.88541">
        <ele>865</ele>
        <time>2012-01-06T09:42:48Z</time>
      </trkpt>
      <trkpt lat="44.56025" lon="2.88265">
        <ele>864</ele>
        <time>2012-01-06T09:42:48Z</time>
      </trkpt>
      <trkpt lat="44.56085" lon="2.87926">
        <ele>854</ele>
        <time>2012-01-06T09:42:48Z</time>
      </trkpt>
      <trkpt lat="44.56067" lon="2.87536">
        <ele>842</ele>
        <time>2012-01-06T09:42:48Z</time>
      </trkpt>
      <trkpt lat="44.55866" lon="2.87204">
        <ele>825</ele>
        <time>2012-01-06T09:42:48Z</time>
      </trkpt>
      <trkpt lat="44.55839" lon="2.87065">
        <ele>825</ele>
        <time>2012-01-06T09:42:48Z</time>
      </trkpt>
      <trkpt lat="44.55672" lon="2.86743">
        <ele>816</ele>
        <time>2012-01-06T09:42:48Z</time>
      </trkpt>
      <trkpt lat="44.55473" lon="2.86552">
        <ele>796</ele>
        <time>2012-01-06T09:42:48Z</time>
      </trkpt>
      <trkpt lat="44.55293" lon="2.86538">
        <ele>773</ele>
        <time>2012-01-06T09:42:48Z</time>
      </trkpt>
      <trkpt lat="44.55224" lon="2.8648">
        <ele>766</ele>
        <time>2012-01-06T09:42:48Z</time>
      </trkpt>
      <trkpt lat="44.55094" lon="2.86451">
        <ele>758</ele>
        <time>2012-01-06T09:42:48Z</time>
      </trkpt>
      <trkpt lat="44.54966" lon="2.86315">
        <ele>749</ele>
        <time>2012-01-06T09:42:48Z</time>
      </trkpt>
      <trkpt lat="44.54879" lon="2.86282">
        <ele>739</ele>
        <time>2012-01-06T09:42:48Z</time>
      </trkpt>
      <trkpt lat="44.5476" lon="2.86149">
        <ele>719</ele>
        <time>2012-01-06T09:42:48Z</time>
      </trkpt>
      <trkpt lat="44.54693" lon="2.86007">
        <ele>708</ele>
        <time>2012-01-06T09:42:48Z</time>
      </trkpt>
      <trkpt lat="44.54588" lon="2.85949">
        <ele>708</ele>
        <time>2012-01-06T09:42:48Z</time>
      </trkpt>
      <trkpt lat="44.54431" lon="2.85929">
        <ele>699</ele>
        <time>2012-01-06T09:42:48Z</time>
      </trkpt>
      <trkpt lat="44.54359" lon="2.85884">
        <ele>688</ele>
        <time>2012-01-06T09:42:48Z</time>
      </trkpt>
      <trkpt lat="44.54201" lon="2.85635">
        <ele>674</ele>
        <time>2012-01-06T09:42:48Z</time>
      </trkpt>
      <trkpt lat="44.54181" lon="2.85543">
        <ele>676</ele>
        <time>2012-01-06T09:42:48Z</time>
      </trkpt>
      <trkpt lat="44.54082" lon="2.8548">
        <ele>658</ele>
        <time>2012-01-06T09:42:48Z</time>
      </trkpt>
      <trkpt lat="44.53995" lon="2.85369">
        <ele>645</ele>
        <time>2012-01-06T09:42:48Z</time>
      </trkpt>
      <trkpt lat="44.53815" lon="2.85295">
        <ele>616</ele>
        <time>2012-01-06T09:42:48Z</time>
      </trkpt>
      <trkpt lat="44.53634" lon="2.85139">
        <ele>585</ele>
        <time>2012-01-06T09:42:48Z</time>
      </trkpt>
      <trkpt lat="44.53593" lon="2.8517">
        <ele>578</ele>
        <time>2012-01-06T09:42:48Z</time>
      </trkpt>
      <trkpt lat="44.5356" lon="2.85116">
        <ele>568</ele>
        <time>2012-01-06T09:42:48Z</time>
      </trkpt>
      <trkpt lat="44.53563" lon="2.85016">
        <ele>561</ele>
        <time>2012-01-06T09:42:48Z</time>
      </trkpt>
      <trkpt lat="44.53446" lon="2.84971">
        <ele>544</ele>
        <time>2012-01-06T09:42:48Z</time>
      </trkpt>
      <trkpt lat="44.53439" lon="2.84914">
        <ele>538</ele>
        <time>2012-01-06T09:42:48Z</time>
      </trkpt>
      <trkpt lat="44.53374" lon="2.8497">
        <ele>524</ele>
        <time>2012-01-06T09:42:48Z</time>
      </trkpt>
      <trkpt lat="44.53372" lon="2.84913">
        <ele>517</ele>
        <time>2012-01-06T09:42:48Z</time>
      </trkpt>
      <trkpt lat="44.53318" lon="2.8496">
        <ele>500</ele>
        <time>2012-01-06T09:42:48Z</time>
      </trkpt>
      <trkpt lat="44.53296" lon="2.84906">
        <ele>484</ele>
        <time>2012-01-06T09:42:48Z</time>
      </trkpt>
      <trkpt lat="44.53235" lon="2.84887">
        <ele>451</ele>
        <time>2012-01-06T09:42:48Z</time>
      </trkpt>
      <trkpt lat="44.5322" lon="2.8483">
        <ele>431</ele>
        <time>2012-01-06T09:42:48Z</time>
      </trkpt>
      <trkpt lat="44.53177" lon="2.84858">
        <ele>412</ele>
        <time>2012-01-06T09:42:48Z</time>
      </trkpt>
      <trkpt lat="44.53154" lon="2.84833">
        <ele>413</ele>
        <time>2012-01-06T09:42:48Z</time>
      </trkpt>
      <trkpt lat="44.53118" lon="2.84814">
        <ele>417</ele>
        <time>2012-01-06T09:42:48Z</time>
      </trkpt>
      <trkpt lat="44.53031" lon="2.84659">
        <ele>433</ele>
        <time>2012-01-06T09:42:48Z</time>
      </trkpt>
      <trkpt lat="44.52982" lon="2.84624">
        <ele>428</ele>
        <time>2012-01-06T09:42:48Z</time>
      </trkpt>
      <trkpt lat="44.53009" lon="2.84568">
        <ele>440</ele>
        <time>2012-01-06T09:42:48Z</time>
      </trkpt>
      <trkpt lat="44.5298" lon="2.84561">
        <ele>443</ele>
        <time>2012-01-06T09:42:48Z</time>
      </trkpt>
      <trkpt lat="44.52908" lon="2.84636">
        <ele>441</ele>
        <time>2012-01-06T09:42:48Z</time>
      </trkpt>
      <trkpt lat="44.52885" lon="2.84692">
        <ele>433</ele>
        <time>2012-01-06T09:42:48Z</time>
      </trkpt>
      <trkpt lat="44.52851" lon="2.84708">
        <ele>437</ele>
        <time>2012-01-06T09:42:48Z</time>
      </trkpt>
      <trkpt lat="44.52822" lon="2.84654">
        <ele>442</ele>
        <time>2012-01-06T09:42:48Z</time>
      </trkpt>
      <trkpt lat="44.52845" lon="2.84594">
        <ele>452</ele>
        <time>2012-01-06T09:42:48Z</time>
      </trkpt>
      <trkpt lat="44.52798" lon="2.84566">
        <ele>445</ele>
        <time>2012-01-06T09:42:48Z</time>
      </trkpt>
      <trkpt lat="44.52783" lon="2.84471">
        <ele>460</ele>
        <time>2012-01-06T09:42:48Z</time>
      </trkpt>
      <trkpt lat="44.52606" lon="2.84253">
        <ele>459</ele>
        <time>2012-01-06T09:42:48Z</time>
      </trkpt>
      <trkpt lat="44.52544" lon="2.84164">
        <ele>455</ele>
        <time>2012-01-06T09:42:48Z</time>
      </trkpt>
      <trkpt lat="44.52322" lon="2.83993">
        <ele>444</ele>
        <time>2012-01-06T09:42:48Z</time>
      </trkpt>
      <trkpt lat="44.52315" lon="2.83942">
        <ele>438</ele>
        <time>2012-01-06T09:42:48Z</time>
      </trkpt>
      <trkpt lat="44.52412" lon="2.83864">
        <ele>438</ele>
        <time>2012-01-06T09:42:48Z</time>
      </trkpt>
      <trkpt lat="44.52399" lon="2.83836">
        <ele>439</ele>
        <time>2012-01-06T09:42:48Z</time>
      </trkpt>
      <trkpt lat="44.52237" lon="2.83844">
        <ele>435</ele>
        <time>2012-01-06T09:42:48Z</time>
      </trkpt>
      <trkpt lat="44.52161" lon="2.83777">
        <ele>439</ele>
        <time>2012-01-06T09:42:48Z</time>
      </trkpt>
      <trkpt lat="44.52125" lon="2.83667">
        <ele>440</ele>
        <time>2012-01-06T09:42:48Z</time>
      </trkpt>
      <trkpt lat="44.52072" lon="2.83594">
        <ele>433</ele>
        <time>2012-01-06T09:42:48Z</time>
      </trkpt>
      <trkpt lat="44.51988" lon="2.83628">
        <ele>429</ele>
        <time>2012-01-06T09:42:48Z</time>
      </trkpt>
      <trkpt lat="44.51768" lon="2.83579">
        <ele>414</ele>
        <time>2012-01-06T09:42:48Z</time>
      </trkpt>
      <trkpt lat="44.51774" lon="2.83243">
        <ele>405</ele>
        <time>2012-01-06T09:42:48Z</time>
      </trkpt>
      <trkpt lat="44.51594" lon="2.82814">
        <ele>396</ele>
        <time>2012-01-06T09:42:48Z</time>
      </trkpt>
      <trkpt lat="44.51635" lon="2.82777">
        <ele>399</ele>
        <time>2012-01-06T09:42:48Z</time>
      </trkpt>
      <trkpt lat="44.5161" lon="2.82688">
        <ele>395</ele>
        <time>2012-01-06T09:42:48Z</time>
      </trkpt>
      <trkpt lat="44.51626" lon="2.82657">
        <ele>395</ele>
        <time>2012-01-06T09:42:48Z</time>
      </trkpt>
      <trkpt lat="44.5153" lon="2.82568">
        <ele>391</ele>
        <time>2012-01-06T09:42:48Z</time>
      </trkpt>
      <trkpt lat="44.51562" lon="2.82455">
        <ele>389</ele>
        <time>2012-01-06T09:42:48Z</time>
      </trkpt>
      <trkpt lat="44.5152" lon="2.82339">
        <ele>383</ele>
        <time>2012-01-06T09:42:48Z</time>
      </trkpt>
      <trkpt lat="44.51581" lon="2.82195">
        <ele>386</ele>
        <time>2012-01-06T09:42:48Z</time>
      </trkpt>
      <trkpt lat="44.51615" lon="2.8217">
        <ele>387</ele>
        <time>2012-01-06T09:42:48Z</time>
      </trkpt>
      <trkpt lat="44.51665" lon="2.82016">
        <ele>387</ele>
        <time>2012-01-06T09:42:48Z</time>
      </trkpt>
      <trkpt lat="44.51652" lon="2.81922">
        <ele>384</ele>
        <time>2012-01-06T09:42:48Z</time>
      </trkpt>
      <trkpt lat="44.51533" lon="2.81921">
        <ele>378</ele>
        <time>2012-01-06T09:42:48Z</time>
      </trkpt>
      <trkpt lat="44.5147" lon="2.81955">
        <ele>374</ele>
        <time>2012-01-06T09:42:48Z</time>
      </trkpt>
      <trkpt lat="44.51403" lon="2.81829">
        <ele>361</ele>
        <time>2012-01-06T09:42:48Z</time>
      </trkpt>
      <trkpt lat="44.51399" lon="2.81643">
        <ele>365</ele>
        <time>2012-01-06T09:42:48Z</time>
      </trkpt>
      <trkpt lat="44.51359" lon="2.81665">
        <ele>359</ele>
        <time>2012-01-06T09:42:48Z</time>
      </trkpt>
      <trkpt lat="44.5122" lon="2.81617">
        <ele>358</ele>
        <time>2012-01-06T09:42:48Z</time>
      </trkpt>
      <trkpt lat="44.51029" lon="2.81002">
        <ele>358</ele>
        <time>2012-01-06T09:42:48Z</time>
      </trkpt>
      <trkpt lat="44.50839" lon="2.80812">
        <ele>358</ele>
        <time>2012-01-06T09:42:48Z</time>
      </trkpt>
      <trkpt lat="44.50743" lon="2.80651">
        <ele>357</ele>
        <time>2012-01-06T09:42:48Z</time>
      </trkpt>
      <trkpt lat="44.50718" lon="2.80528">
        <ele>357</ele>
        <time>2012-01-06T09:42:48Z</time>
      </trkpt>
      <trkpt lat="44.50721" lon="2.80387">
        <ele>358</ele>
        <time>2012-01-06T09:42:48Z</time>
      </trkpt>
      <trkpt lat="44.50663" lon="2.80245">
        <ele>359</ele>
        <time>2012-01-06T09:42:48Z</time>
      </trkpt>
      <trkpt lat="44.5067" lon="2.80198">
        <ele>360</ele>
        <time>2012-01-06T09:42:48Z</time>
      </trkpt>
      <trkpt lat="44.50655" lon="2.80032">
        <ele>374</ele>
        <time>2012-01-06T09:42:48Z</time>
      </trkpt>
      <trkpt lat="44.50633" lon="2.80047">
        <ele>380</ele>
        <time>2012-01-06T09:42:48Z</time>
      </trkpt>
      <trkpt lat="44.50611" lon="2.79931">
        <ele>394</ele>
        <time>2012-01-06T09:42:48Z</time>
      </trkpt>
      <trkpt lat="44.5064" lon="2.79871">
        <ele>395</ele>
        <time>2012-01-06T09:42:48Z</time>
      </trkpt>
      <trkpt lat="44.50647" lon="2.79742">
        <ele>403</ele>
        <time>2012-01-06T09:42:48Z</time>
      </trkpt>
      <trkpt lat="44.50594" lon="2.79641">
        <ele>411</ele>
        <time>2012-01-06T09:42:48Z</time>
      </trkpt>
      <trkpt lat="44.50471" lon="2.79477">
        <ele>441</ele>
        <time>2012-01-06T09:42:48Z</time>
      </trkpt>
      <trkpt lat="44.50467" lon="2.7942">
        <ele>451</ele>
        <time>2012-01-06T09:42:48Z</time>
      </trkpt>
      <trkpt lat="44.50494" lon="2.7937">
        <ele>454</ele>
        <time>2012-01-06T09:42:48Z</time>
      </trkpt>
      <trkpt lat="44.50492" lon="2.79317">
        <ele>460</ele>
        <time>2012-01-06T09:42:48Z</time>
      </trkpt>
      <trkpt lat="44.50467" lon="2.79351">
        <ele>461</ele>
        <time>2012-01-06T09:42:48Z</time>
      </trkpt>
      <trkpt lat="44.50468" lon="2.79144">
        <ele>482</ele>
        <time>2012-01-06T09:42:48Z</time>
      </trkpt>
      <trkpt lat="44.50522" lon="2.79082">
        <ele>482</ele>
        <time>2012-01-06T09:42:48Z</time>
      </trkpt>
      <trkpt lat="44.50581" lon="2.7906">
        <ele>481</ele>
        <time>2012-01-06T09:42:48Z</time>
      </trkpt>
      <trkpt lat="44.50646" lon="2.78944">
        <ele>486</ele>
        <time>2012-01-06T09:42:48Z</time>
      </trkpt>
      <trkpt lat="44.50721" lon="2.78907">
        <ele>485</ele>
        <time>2012-01-06T09:42:48Z</time>
      </trkpt>
      <trkpt lat="44.50762" lon="2.78804">
        <ele>485</ele>
        <time>2012-01-06T09:42:48Z</time>
      </trkpt>
      <trkpt lat="44.50874" lon="2.78707">
        <ele>460</ele>
        <time>2012-01-06T09:42:48Z</time>
      </trkpt>
      <trkpt lat="44.50897" lon="2.78667">
        <ele>450</ele>
        <time>2012-01-06T09:42:48Z</time>
      </trkpt>
      <trkpt lat="44.51055" lon="2.78558">
        <ele>443</ele>
        <time>2012-01-06T09:42:48Z</time>
      </trkpt>
      <trkpt lat="44.51163" lon="2.78374">
        <ele>448</ele>
        <time>2012-01-06T09:42:48Z</time>
      </trkpt>
      <trkpt lat="44.51266" lon="2.78142">
        <ele>472</ele>
        <time>2012-01-06T09:42:48Z</time>
      </trkpt>
      <trkpt lat="44.51308" lon="2.78145">
        <ele>481</ele>
        <time>2012-01-06T09:42:48Z</time>
      </trkpt>
      <trkpt lat="44.51297" lon="2.78048">
        <ele>477</ele>
        <time>2012-01-06T09:42:48Z</time>
      </trkpt>
      <trkpt lat="44.51278" lon="2.77953">
        <ele>462</ele>
        <time>2012-01-06T09:42:48Z</time>
      </trkpt>
      <trkpt lat="44.51383" lon="2.7792">
        <ele>463</ele>
        <time>2012-01-06T09:42:48Z</time>
      </trkpt>
      <trkpt lat="44.514" lon="2.77819">
        <ele>457</ele>
        <time>2012-01-06T09:42:48Z</time>
      </trkpt>
      <trkpt lat="44.51461" lon="2.77697">
        <ele>452</ele>
        <time>2012-01-06T09:42:48Z</time>
      </trkpt>
      <trkpt lat="44.51493" lon="2.77591">
        <ele>435</ele>
        <time>2012-01-06T09:42:48Z</time>
      </trkpt>
      <trkpt lat="44.51524" lon="2.77585">
        <ele>425</ele>
        <time>2012-01-06T09:42:48Z</time>
      </trkpt>
      <trkpt lat="44.51582" lon="2.7762">
        <ele>413</ele>
        <time>2012-01-06T09:42:48Z</time>
      </trkpt>
      <trkpt lat="44.51572" lon="2.77525">
        <ele>397</ele>
        <time>2012-01-06T09:42:48Z</time>
      </trkpt>
      <trkpt lat="44.51623" lon="2.7756">
        <ele>390</ele>
        <time>2012-01-06T09:42:48Z</time>
      </trkpt>
      <trkpt lat="44.51675" lon="2.77485">
        <ele>368</ele>
        <time>2012-01-06T09:42:48Z</time>
      </trkpt>
      <trkpt lat="44.51671" lon="2.77425">
        <ele>365</ele>
        <time>2012-01-06T09:42:48Z</time>
      </trkpt>
      <trkpt lat="44.51782" lon="2.77172">
        <ele>352</ele>
        <time>2012-01-06T09:42:48Z</time>
      </trkpt>
      <trkpt lat="44.51677" lon="2.77067">
        <ele>355</ele>
        <time>2012-01-06T09:42:48Z</time>
      </trkpt>
      <trkpt lat="44.5163" lon="2.76932">
        <ele>362</ele>
        <time>2012-01-06T09:42:48Z</time>
      </trkpt>
      <trkpt lat="44.51678" lon="2.76819">
        <ele>365</ele>
        <time>2012-01-06T09:42:48Z</time>
      </trkpt>
      <trkpt lat="44.51965" lon="2.76466">
        <ele>347</ele>
        <time>2012-01-06T09:42:48Z</time>
      </trkpt>
      <trkpt lat="44.52116" lon="2.76354">
        <ele>345</ele>
        <time>2012-01-06T09:42:48Z</time>
      </trkpt>
      <trkpt lat="44.52167" lon="2.76373">
        <ele>341</ele>
        <time>2012-01-06T09:42:48Z</time>
      </trkpt>
      <trkpt lat="44.52244" lon="2.7628">
        <ele>340</ele>
        <time>2012-01-06T09:42:48Z</time>
      </trkpt>
      <trkpt lat="44.52224" lon="2.76258">
        <ele>342</ele>
        <time>2012-01-06T09:42:48Z</time>
      </trkpt>
      <trkpt lat="44.52494" lon="2.75697">
        <ele>337</ele>
        <time>2012-01-06T09:42:48Z</time>
      </trkpt>
      <trkpt lat="44.52539" lon="2.75666">
        <ele>337</ele>
        <time>2012-01-06T09:42:48Z</time>
      </trkpt>
      <trkpt lat="44.52682" lon="2.75152">
        <ele>337</ele>
        <time>2012-01-06T09:42:48Z</time>
      </trkpt>
      <trkpt lat="44.52613" lon="2.75079">
        <ele>342</ele>
        <time>2012-01-06T09:42:48Z</time>
      </trkpt>
      <trkpt lat="44.52631" lon="2.75">
        <ele>343</ele>
        <time>2012-01-06T09:42:48Z</time>
      </trkpt>
      <trkpt lat="44.52501" lon="2.74893">
        <ele>361</ele>
        <time>2012-01-06T09:42:48Z</time>
      </trkpt>
      <trkpt lat="44.52394" lon="2.74854">
        <ele>367</ele>
        <time>2012-01-06T09:42:48Z</time>
      </trkpt>
      <trkpt lat="44.52441" lon="2.74663">
        <ele>366</ele>
        <time>2012-01-06T09:42:48Z</time>
      </trkpt>
      <trkpt lat="44.52442" lon="2.74537">
        <ele>363</ele>
        <time>2012-01-06T09:42:48Z</time>
      </trkpt>
      <trkpt lat="44.52494" lon="2.74342">
        <ele>363</ele>
        <time>2012-01-06T09:42:48Z</time>
      </trkpt>
      <trkpt lat="44.52641" lon="2.74149">
        <ele>353</ele>
        <time>2012-01-06T09:42:48Z</time>
      </trkpt>
      <trkpt lat="44.52673" lon="2.74061">
        <ele>349</ele>
        <time>2012-01-06T09:42:48Z</time>
      </trkpt>
      <trkpt lat="44.52739" lon="2.73977">
        <ele>341</ele>
        <time>2012-01-06T09:42:48Z</time>
      </trkpt>
      <trkpt lat="44.52832" lon="2.73565">
        <ele>338</ele>
        <time>2012-01-06T09:42:48Z</time>
      </trkpt>
      <trkpt lat="44.52761" lon="2.73411">
        <ele>345</ele>
        <time>2012-01-06T09:42:48Z</time>
      </trkpt>
      <trkpt lat="44.5269" lon="2.73162">
        <ele>347</ele>
        <time>2012-01-06T09:42:48Z</time>
      </trkpt>
      <trkpt lat="44.52621" lon="2.73039">
        <ele>346</ele>
        <time>2012-01-06T09:42:48Z</time>
      </trkpt>
      <trkpt lat="44.52588" lon="2.72831">
        <ele>340</ele>
        <time>2012-01-06T09:42:48Z</time>
      </trkpt>
      <trkpt lat="44.52601" lon="2.72813">
        <ele>341</ele>
        <time>2012-01-06T09:42:48Z</time>
      </trkpt>
      <trkpt lat="44.527" lon="2.72826">
        <ele>358</ele>
        <time>2012-01-06T09:42:48Z</time>
      </trkpt>
      <trkpt lat="44.52691" lon="2.72763">
        <ele>364</ele>
        <time>2012-01-06T09:42:48Z</time>
      </trkpt>
      <trkpt lat="44.52635" lon="2.72709">
        <ele>363</ele>
        <time>2012-01-06T09:42:48Z</time>
      </trkpt>
      <trkpt lat="44.52629" lon="2.72665">
        <ele>369</ele>
        <time>2012-01-06T09:42:48Z</time>
      </trkpt>
      <trkpt lat="44.5269" lon="2.72581">
        <ele>402</ele>
        <time>2012-01-06T09:42:48Z</time>
      </trkpt>
      <trkpt lat="44.52802" lon="2.72534">
        <ele>429</ele>
        <time>2012-01-06T09:42:48Z</time>
      </trkpt>
      <trkpt lat="44.52845" lon="2.72563">
        <ele>441</ele>
        <time>2012-01-06T09:42:48Z</time>
      </trkpt>
      <trkpt lat="44.52872" lon="2.72541">
        <ele>449</ele>
        <time>2012-01-06T09:42:48Z</time>
      </trkpt>
      <trkpt lat="44.52945" lon="2.7229">
        <ele>478</ele>
        <time>2012-01-06T09:42:48Z</time>
      </trkpt>
      <trkpt lat="44.52903" lon="2.72089">
        <ele>486</ele>
        <time>2012-01-06T09:42:48Z</time>
      </trkpt>
      <trkpt lat="44.52872" lon="2.71991">
        <ele>489</ele>
        <time>2012-01-06T09:42:48Z</time>
      </trkpt>
      <trkpt lat="44.52879" lon="2.71884">
        <ele>489</ele>
        <time>2012-01-06T09:42:48Z</time>
      </trkpt>
      <trkpt lat="44.52994" lon="2.7164">
        <ele>482</ele>
        <time>2012-01-06T09:42:48Z</time>
      </trkpt>
      <trkpt lat="44.53004" lon="2.71464">
        <ele>483</ele>
        <time>2012-01-06T09:42:48Z</time>
      </trkpt>
      <trkpt lat="44.53088" lon="2.71273">
        <ele>482</ele>
        <time>2012-01-06T09:42:48Z</time>
      </trkpt>
      <trkpt lat="44.53139" lon="2.71245">
        <ele>474</ele>
        <time>2012-01-06T09:42:48Z</time>
      </trkpt>
      <trkpt lat="44.53189" lon="2.7116">
        <ele>477</ele>
        <time>2012-01-06T09:42:48Z</time>
      </trkpt>
      <trkpt lat="44.53221" lon="2.71164">
        <ele>479</ele>
        <time>2012-01-06T09:42:48Z</time>
      </trkpt>
      <trkpt lat="44.53282" lon="2.71029">
        <ele>488</ele>
        <time>2012-01-06T09:42:48Z</time>
      </trkpt>
      <trkpt lat="44.53277" lon="2.70988">
        <ele>488</ele>
        <time>2012-01-06T09:42:48Z</time>
      </trkpt>
      <trkpt lat="44.53316" lon="2.70995">
        <ele>489</ele>
        <time>2012-01-06T09:42:48Z</time>
      </trkpt>
      <trkpt lat="44.53452" lon="2.71102">
        <ele>485</ele>
        <time>2012-01-06T09:42:48Z</time>
      </trkpt>
      <trkpt lat="44.53675" lon="2.71107">
        <ele>480</ele>
        <time>2012-01-06T09:42:48Z</time>
      </trkpt>
      <trkpt lat="44.53763" lon="2.71136">
        <ele>485</ele>
        <time>2012-01-06T09:42:48Z</time>
      </trkpt>
      <trkpt lat="44.53939" lon="2.70936">
        <ele>474</ele>
        <time>2012-01-06T09:42:48Z</time>
      </trkpt>
      <trkpt lat="44.53962" lon="2.70685">
        <ele>442</ele>
        <time>2012-01-06T09:42:48Z</time>
      </trkpt>
      <trkpt lat="44.5398" lon="2.70713">
        <ele>445</ele>
        <time>2012-01-06T09:42:48Z</time>
      </trkpt>
      <trkpt lat="44.53993" lon="2.70666">
        <ele>431</ele>
        <time>2012-01-06T09:42:48Z</time>
      </trkpt>
      <trkpt lat="44.54038" lon="2.7066">
        <ele>417</ele>
        <time>2012-01-06T09:42:48Z</time>
      </trkpt>
      <trkpt lat="44.54014" lon="2.70591">
        <ele>405</ele>
        <time>2012-01-06T09:42:48Z</time>
      </trkpt>
      <trkpt lat="44.54075" lon="2.70578">
        <ele>393</ele>
        <time>2012-01-06T09:42:48Z</time>
      </trkpt>
      <trkpt lat="44.54118" lon="2.70547">
        <ele>384</ele>
        <time>2012-01-06T09:42:48Z</time>
      </trkpt>
      <trkpt lat="44.54141" lon="2.70378">
        <ele>373</ele>
        <time>2012-01-06T09:42:48Z</time>
      </trkpt>
      <trkpt lat="44.53988" lon="2.70377">
        <ele>368</ele>
        <time>2012-01-06T09:42:48Z</time>
      </trkpt>
      <trkpt lat="44.53941" lon="2.70326">
        <ele>362</ele>
        <time>2012-01-06T09:42:48Z</time>
      </trkpt>
      <trkpt lat="44.53937" lon="2.70213">
        <ele>361</ele>
        <time>2012-01-06T09:42:48Z</time>
      </trkpt>
      <trkpt lat="44.53798" lon="2.70055">
        <ele>366</ele>
        <time>2012-01-06T09:42:48Z</time>
      </trkpt>
      <trkpt lat="44.54008" lon="2.69635">
        <ele>353</ele>
        <time>2012-01-06T09:42:48Z</time>
      </trkpt>
      <trkpt lat="44.54079" lon="2.69195">
        <ele>346</ele>
        <time>2012-01-06T09:42:48Z</time>
      </trkpt>
      <trkpt lat="44.5399" lon="2.69085">
        <ele>345</ele>
        <time>2012-01-06T09:42:48Z</time>
      </trkpt>
      <trkpt lat="44.53752" lon="2.68935">
        <ele>350</ele>
        <time>2012-01-06T09:42:48Z</time>
      </trkpt>
      <trkpt lat="44.53901" lon="2.68723">
        <ele>345</ele>
        <time>2012-01-06T09:42:48Z</time>
      </trkpt>
      <trkpt lat="44.54025" lon="2.68645">
        <ele>344</ele>
        <time>2012-01-06T09:42:48Z</time>
      </trkpt>
      <trkpt lat="44.5409" lon="2.68541">
        <ele>345</ele>
        <time>2012-01-06T09:42:48Z</time>
      </trkpt>
      <trkpt lat="44.5425" lon="2.68545">
        <ele>337</ele>
        <time>2012-01-06T09:42:48Z</time>
      </trkpt>
      <trkpt lat="44.54321" lon="2.68266">
        <ele>331</ele>
        <time>2012-01-06T09:42:48Z</time>
      </trkpt>
      <trkpt lat="44.54316" lon="2.68147">
        <ele>323</ele>
        <time>2012-01-06T09:42:48Z</time>
      </trkpt>
      <trkpt lat="44.54265" lon="2.68049">
        <ele>328</ele>
        <time>2012-01-06T09:42:48Z</time>
      </trkpt>
      <trkpt lat="44.54326" lon="2.68049">
        <ele>328</ele>
        <time>2012-01-06T09:42:48Z</time>
      </trkpt>
      <trkpt lat="44.5442" lon="2.68179">
        <ele>322</ele>
        <time>2012-01-06T09:42:48Z</time>
      </trkpt>
      <trkpt lat="44.54584" lon="2.68177">
        <ele>331</ele>
        <time>2012-01-06T09:42:48Z</time>
      </trkpt>
      <trkpt lat="44.54627" lon="2.68193">
        <ele>342</ele>
        <time>2012-01-06T09:42:48Z</time>
      </trkpt>
      <trkpt lat="44.54647" lon="2.68287">
        <ele>321</ele>
        <time>2012-01-06T09:42:48Z</time>
      </trkpt>
      <trkpt lat="44.54705" lon="2.6836">
        <ele>336</ele>
        <time>2012-01-06T09:42:48Z</time>
      </trkpt>
      <trkpt lat="44.54742" lon="2.68558">
        <ele>329</ele>
        <time>2012-01-06T09:42:48Z</time>
      </trkpt>
      <trkpt lat="44.54809" lon="2.68716">
        <ele>324</ele>
        <time>2012-01-06T09:42:48Z</time>
      </trkpt>
      <trkpt lat="44.54868" lon="2.68776">
        <ele>322</ele>
        <time>2012-01-06T09:42:48Z</time>
      </trkpt>
      <trkpt lat="44.5493" lon="2.68789">
        <ele>320</ele>
        <time>2012-01-06T09:42:48Z</time>
      </trkpt>
      <trkpt lat="44.54946" lon="2.68729">
        <ele>320</ele>
        <time>2012-01-06T09:42:48Z</time>
      </trkpt>
      <trkpt lat="44.54933" lon="2.68635">
        <ele>327</ele>
        <time>2012-01-06T09:42:48Z</time>
      </trkpt>
      <trkpt lat="44.54949" lon="2.6855">
        <ele>321</ele>
        <time>2012-01-06T09:42:48Z</time>
      </trkpt>
      <trkpt lat="44.54929" lon="2.68474">
        <ele>329</ele>
        <time>2012-01-06T09:42:48Z</time>
      </trkpt>
      <trkpt lat="44.5493" lon="2.68333">
        <ele>322</ele>
        <time>2012-01-06T09:42:48Z</time>
      </trkpt>
      <trkpt lat="44.54885" lon="2.68204">
        <ele>328</ele>
        <time>2012-01-06T09:42:48Z</time>
      </trkpt>
      <trkpt lat="44.54856" lon="2.6809">
        <ele>327</ele>
        <time>2012-01-06T09:42:48Z</time>
      </trkpt>
      <trkpt lat="44.54884" lon="2.67943">
        <ele>325</ele>
        <time>2012-01-06T09:42:48Z</time>
      </trkpt>
      <trkpt lat="44.54933" lon="2.67852">
        <ele>326</ele>
        <time>2012-01-06T09:42:48Z</time>
      </trkpt>
      <trkpt lat="44.55044" lon="2.67745">
        <ele>317</ele>
        <time>2012-01-06T09:42:48Z</time>
      </trkpt>
      <trkpt lat="44.55082" lon="2.67686">
        <ele>320</ele>
        <time>2012-01-06T09:42:48Z</time>
      </trkpt>
      <trkpt lat="44.55121" lon="2.67542">
        <ele>332</ele>
        <time>2012-01-06T09:42:48Z</time>
      </trkpt>
      <trkpt lat="44.55218" lon="2.67426">
        <ele>320</ele>
        <time>2012-01-06T09:42:48Z</time>
      </trkpt>
      <trkpt lat="44.55243" lon="2.67366">
        <ele>318</ele>
        <time>2012-01-06T09:42:48Z</time>
      </trkpt>
      <trkpt lat="44.5525" lon="2.67316">
        <ele>318</ele>
        <time>2012-01-06T09:42:48Z</time>
      </trkpt>
      <trkpt lat="44.5529" lon="2.67275">
        <ele>316</ele>
        <time>2012-01-06T09:42:48Z</time>
      </trkpt>
    </trkseg>
  </trk>
</gpx>